{"data":{"norad_id":68135,"epoch":"2026-05-25T00:46:29.825760Z","epoch_age_seconds":75471,"freshness":"FRESH","line1":"1 68135U 26047G   26145.03228965 -.00000088  00000+0  77131-4 0  9994","line2":"2 68135  50.0072 139.1116 0000279 350.7917   9.2950 13.29330984  9995","mean_motion":13.29330984,"eccentricity":2.79e-5,"inclination_deg":50.0072,"raan_deg":139.1116,"arg_perigee_deg":350.7917,"mean_anomaly_deg":9.295,"bstar":7.7131e-5,"rev_number":999,"period_min":108.32516636805,"perigee_km":1149.0777418242,"apogee_km":1149.4977721256,"semimajor_km":7527.4247569749,"source":"CELESTRAK","updated_at":"2026-05-25T13:38:07.577206Z"}}